Regional Weather Roundup
Issued by NWS Newport/Morehead, NC

Current Version | Previous Version | Graphics & Text | Print | Product List | Glossary Off
Versions: 1 2 3 4 5 6 7 8 9 10 11 12 13 14 15 16 17 18 19 20 21 22 23 24 25 26 27 28 29 30 31 32 33 34 35 36 37 38 39 40 41 42 43 44 45 46 47 48 49 50

000
ASUS42 KMHX 271728
RWRMHX
WEATHER ROUNDUP FOR EASTERN NORTH CAROLINA
NATIONAL WEATHER SERVICE NEWPORT/MOREHEAD CITY NC
100 PM EDT FRI MAR 27 2015

NOTE: "FAIR" INDICATES FEW OR NO CLOUDS BELOW 12,000 FEET
WITH NO SIGNIFICANT WEATHER AND/OR OBSTRUCTIONS TO VISIBILITY

NCZ015>017-031-032-045>047-102-103-271800-
NORTH COAST

CITY           SKY/WX    TMP DP  RH WIND       PRES   REMARKS
EDENTON        DRIZZLE   45  43  93 N12       29.77R
ELIZABETH CITY LGT RAIN  46  45  93 N17       29.75R FOG
KITTY HAWK     CLOUDY    43  41  93 N13G22    29.72R
MANTEO         CLOUDY    43  41  93 N21       29.75R

$$

NCZ045>047-081-094-103-104-271800-
CENTRAL COAST

CITY           SKY/WX    TMP DP  RH WIND       PRES   REMARKS
FRISCO         CLOUDY    47  44  90 N12G23    29.71R
SWANQUARTER      N/A     48 N/A N/A NE12G24   29.68S

$$

NCZ095-097-098-100-101-271800-
SOUTHERN COAST

CITY           SKY/WX    TMP DP  RH WIND       PRES   REMARKS
BEAUFORT       CLOUDY    53  51  93 NE13G20   29.69S
CEDAR ISLAND     N/A     50 N/A N/A NE15G26   29.74S
JACKSONVILLE   CLOUDY    57  52  83 N21       29.69R
PINEY ISLAND   CLOUDY   N/A N/A N/A NE13      29.70S
WILMINGTON     LGT RAIN  70  62  76 SW9       29.64F


$$

NCZ011>013-027>030-043-044-078>080-089-090>093-098-271800-
COASTAL PLAIN

CITY           SKY/WX    TMP DP  RH WIND       PRES   REMARKS
AHOSKIE        LGT RAIN  44  42  93 N13G21    29.78F
CLINTON        RAIN      49  47  93 N12G17    29.72F
ELIZABETHTOWN  DRIZZLE   51  49  92 N8        29.69F
GOLDSBORO      LGT RAIN  48  45  87 N13       29.73R
GREENVILLE     LGT RAIN  48  46  93 NE13      29.78F
HAVELOCK       LGT RAIN  52  49  89 NE12      29.70R
KENANSVILLE    LGT RAIN  48  47  95 N9        29.74R
KINSTON        RAIN      48  48 100 N13       29.75R
NEW BERN       CLOUDY    50  46  86 NE14      29.71S
RICHLANDS      CLOUDY    52  46  82 N14G21    29.71S
ROCKY MOUNT    CLOUDY    47  44  90 N13       29.79R
WASHINGTON     RAIN      46  44  94 NE13G20   29.75R
WHITEVILLE     HVY RAIN  55  50  85 N8G17     29.65F

$$

AMZ130-135-150-152-154-156-158-170-250-252-270-ANZ085-086-088-633-658-670-271800-
MARINE OBSERVATIONS

STATION/POSITION TIME  TEMP    WIND        PRES    WAVE   SWELL
                       AIR SEA DIR/SP/G            HT/PER HT/PER
                 (UTC) (F)     (DEG/KT/KT) (MB)    (FT/S) (FT/S)
CHESAPEAKE LIGHT 1700   41      10/ 14/ 17 1008.1
64 E VA BEACH    1650   47 52  360/ 23/ 27 1004.3    9/ 7   2/11
DUCK             1700   42 42   10/ 19/ 22 1005.7
2 E DUCK         1711      42                N/A     6/ 5   2/11
10 NE DUCK       NOT AVBL
OREGON INLET     1700   42 58  360/ 14/ 18 1006.0
HATTERAS CG      1612   49 60   20/ 20/ 25 1006.0
CAPE LOOKOUT     1700   54      40/ 20/ 23 1004.6
BEAUFORT LAB     1612   57 58   30/ 12/ 18 1004.0
27 SE WRIGHTSVLE 1700   62 65  240/ 19/ 23 1006.5
5 SE WRIGHTSVLE  1700   62 58  220/ 17/ 21 1004.2
225 S CAPE HAT   1650   72 69  210/ 25/ 31 1007.7   11/ 8
41 SE CHARLESTON 1650   67 70  220/ 21/ 25 1005.5    7/ 6   2/14

$$



USA.gov is the U.S. government's official web portal to all federal, state and local government web resources and services.